www.pogodaiklimat.ru

Погода и климат >> Архив погоды >> Бангладеш >> Джессор


ПОГОДА в Джессоре

  • Прогноз погоды в Джессоре
  • Монитор погоды в Джессоре

АРХИВ ПОГОДЫ в Джессоре

Время (UTC), дата Ветер
(напр.,м/с)
 
Видим.   Явления Облачность Т
(С)
Тd
(С)
f
(%)
Тe
(С)
Тes
(С)
Комфортность P
(гПа)
Po
(гПа)
Тmin
(С)
Tmax
(С)
R
(мм)
R24
(мм)
S
(см)
12 14.08 Ю 3 4000 м мгла 8/4 240 м
[St Ac trans]
+29.4 +26.0 82 +44 +44 опасность
перегрева
1001.7 1001.0 +31.4
15 14.08 Ю 2 4000 м мгла 8/4 240 м
[St Ac trans]
+28.4 +26.0 87 +43 +43 опасность
перегрева
1005.6 1004.9
18 14.08 Ю 2 4000 м мгла 8/4 240 м
[St Ac trans]
+27.4 +25.0 87 +39 +39 очень
душно
1005.9 1005.2
21 14.08 ЮЗ 2 1000 м гроза, ливневой дождь 10/9 180 м
[Cb cap Ac trans]
+26.6 +26.0 97 +40 +40 очень
душно
1004.5 1003.9 26
00 15.08 ЮЗ 2 1000 м гроза, ливневой дождь 10/9 180 м
[Cb cap Ac trans]
+25.4 +24.0 92 +35 +35 очень
душно
1005.0 1004.3 26
03 15.08 ЮЗ 3 2500 м {метель} 10/9 200 м
[Cb calv Ac cuf Ci sp]
+27.0 +25.2 90 +39 +40 очень
душно
1006.0 1005.3 6
06 15.08 ЮЗ 2 3000 м в посл. час дождь 10/8 240 м
[St Ac trans]
+27.6 +26.0 91 +41 +43 опасность
перегрева
1005.9 1005.2
09 15.08 Ю 2 3000 м мгла 9/5 240 м
[St Ac trans]
+29.2 +27.0 88 +46 +49 опасность
перегрева
1004.4 1003.7
12 15.08 штиль 0 3000 м мгла {дождь} 9/5 240 м
[St Ac trans]
+27.8 +16.0 49 +31 +31 душно 1003.3 1002.6 +29.4 0.0
15 15.08 штиль 0 3000 м мгла 8/5 240 м
[St Ac trans]
+27.6 +26.0 91 +41 +41 опасность
перегрева
1004.2 1003.5
18 15.08 штиль 0 3000 м мгла 8/4 450 м
[St Ac trans]
+27.2 +26.0 93 +41 +41 опасность
перегрева
1004.4 1003.7
21 15.08 штиль 0 3000 м мгла 8/4 240 м
[St Ac trans]
+26.8 +26.0 95 +40 +40 очень
душно
1003.4 1002.7
00 16.08 Ю 2 2000 м мгла 8/5 240 м
[St Ac trans]
+26.2 +25.0 93 +37 +37 очень
душно
1003.4 1002.7
03 16.08 Ю 2 2500 м мгла {дождь} 9/5 240 м
[St Ac trans]
+29.2 +27.0 88 +46 +49 опасность
перегрева
1004.7 1004.0 +26.0 0.0
06 16.08 З 2 3500 м мгла {дождь} 9/5 240 м
[St Ac trans]
+33.6 +29.0 77 +57 +63 опасность
перегрева
1004.0 1003.3 0.0
09 16.08 Ю 2 5000 м мгла 9/5 240 м
[St Ac trans]
+34.4 +27.0 65 +52 +55 опасность
перегрева
1001.7 1001.0
12 16.08 Ю 3 2000 м гроза, ливневой дождь 9/5 240 м
[Cb cap Ac trans]
+28.4 +26.0 87 +43 +43 опасность
перегрева
1001.2 1000.5 +34.8 2
15 16.08 Ю 3 3000 м мгла {дождь} 9/6 240 м
[Frnb Ac trans]
+28.0 +26.0 89 +42 +42 опасность
перегрева
1003.1 1002.4 2
18 16.08 штиль 0 3000 м мгла 9/5 240 м
[St Ac trans]
+27.6 +26.0 91 +41 +41 опасность
перегрева
1003.5 1002.8 2
21 16.08 штиль 0 2000 м мгла 9/5 240 м
[St Ac trans]
+27.2 +26.0 93 +41 +41 опасность
перегрева
1002.9 1002.1
00 17.08 штиль 0 1000 м гроза, ливневой дождь 10/6 210 м
[Cb cap Ac trans]
+26.2 +25.0 93 +37 +37 очень
душно
1002.5 1001.7 2
03 17.08 штиль 0 1000 м гроза, ливневой дождь 10/8 210 м
[Cb cap Ac trans]
+26.2 +25.0 93 +37 +39 очень
душно
1004.7 1003.9 +26.0 21
06 17.08 штиль 0 3000 м мгла {гроза, дождь} 9/6 240 м
[St Ac trans]
+27.4 +26.0 92 +41 +47 опасность
перегрева
1004.1 1003.5 24
09 17.08 штиль 0 4000 м мгла 9/6 240 м
[St Ac trans]
+30.2 +27.6 86 +49 +52 опасность
перегрева
1001.4 1000.7
12 17.08 штиль 0 4000 м мгла 8/4 240 м
[St Ac trans]
+30.0 +27.0 84 +47 +47 опасность
перегрева
1000.9 1000.2
15 17.08 штиль 0 4000 м мгла 6/4 240 м
[St Ac trans]
+28.0 +26.0 89 +42 +42 опасность
перегрева
1003.2 1002.5
18 17.08 штиль 0 4000 м мгла 6/4 240 м
[St Ac trans]
+27.4 +26.0 92 +41 +41 опасность
перегрева
1001.6 1002.6
21 17.08 штиль 0 3000 м мгла 6/4 240 м
[St Ac trans]
+26.8 +26.0 95 +40 +40 очень
душно
1002.3 1001.6
00 18.08 штиль 0 2000 м {дождь} 8/6 200 м
[Cb calv Ac cuf Ci sp]
+26.0 +25.0 94 +37 +37 очень
душно
1003.5 1002.7 2
03 18.08 Ю 2 3000 м мгла 8/5 240 м
[St Ac trans]
+28.8 +26.0 85 +43 +47 опасность
перегрева
1004.9 1004.3 +25.6
06 18.08 Ю 5 4000 м мгла 8/5 240 м
[St Ac trans]
+32.0 +26.0 71 +48 +52 опасность
перегрева
1004.7 1004.0
09 18.08 Ю 3 4000 м мгла 6/4 240 м
[St Ac trans]
+31.6 +26.0 72 +47 +52 опасность
перегрева
1003.1 1002.4
12 18.08 Ю 3 4000 м мгла 6/4 240 м
[St Ac trans]
+29.8 +26.0 80 +45 +45 опасность
перегрева
1002.5 1001.8 +32.4
15 18.08 Ю 2 4000 м мгла 8/4 240 м
[St Ac trans]
+28.6 +28.0 97 +47 +47 опасность
перегрева
1004.5 1003.8
18 18.08 Ю 2 4000 м в посл. час дождь 8/5 240 м
[St Ac trans]
+27.6 +26.0 91 +41 +41 опасность
перегрева
1004.6 1003.9 1
21 18.08 ЮЗ 2 4000 м мгла 8/4 240 м
[St Ac trans]
+27.4 +26.0 92 +41 +41 опасность
перегрева
1003.3 1002.6
00 19.08 Ю 2 3000 м мгла 6/4 240 м
[St Ac trans]
+27.2 +26.0 93 +41 +41 опасность
перегрева
1003.7 1003.0
03 19.08 Ю 5 4000 м мгла 5/4 240 м
[St Ac trans]
+30.6 +25.0 72 +44 +47 опасность
перегрева
1006.6 1005.9 +26.8
06 19.08 Ю 5 5000 м мгла 4/4 240 м
[St]
+33.0 +25.0 63 +47 +53 опасность
перегрева
1006.6 1005.9
09 19.08 ЮЗ 5 5000 м мгла 4/4 240 м
[St Ac trans]
+34.6 +25.0 58 +48 +53 опасность
перегрева
1004.1 1003.5
12 19.08 Ю 2 5000 м мгла 4/3 450 м
[Cu Sc Ac trans]
+33.2 +26.0 66 +49 +49 опасность
перегрева
1002.9 1002.2 +35.0
15 19.08 штиль 0 4000 м мгла 3/1 450 м
[Sc Ac trans]
+29.6 +26.0 81 +44 +44 опасность
перегрева
1004.4 1003.7
18 19.08 штиль 0 4000 м мгла 3/1 450 м
[Sc Ac trans]
+29.4 +26.0 82 +44 +44 опасность
перегрева
1004.7 1004.0
21 19.08 штиль 0 4000 м мгла 5/4 450 м
[Cu Sc Ac trans]
+28.4 +26.0 87 +43 +43 опасность
перегрева
1003.7 1003.3
00 20.08 штиль 0 4000 м мгла 5/4 450 м
[Cu Sc Ac trans]
+28.4 +26.0 87 +43 +43 опасность
перегрева
1003.7 1003.3
03 20.08 Ю 3 5000 м мгла 5/3 450 м
[Sc Ac trans]
+30.6 +27.0 81 +48 +53 опасность
перегрева
1005.8 1005.1 +27.0
06 20.08 ЮЗ 4 5000 м мгла 5/4 450 м
[Cu Sc Ac trans]
+33.6 +26.0 65 +50 +57 опасность
перегрева
1004.8 1004.1
09 20.08 ЮЗ 3 5000 м мгла 5/4 450 м
[Cu Sc Ac trans]
+35.0 +26.0 60 +51 +56 опасность
перегрева
1003.1 1002.5
12 20.08 ЮЗ 6 4000 м мгла 6/4 240 м
[St Ac trans]
+32.6 +27.0 72 +50 +50 опасность
перегрева
1001.7 1000.7 +35.2
15 20.08 Ю 2 5000 м мгла 3/1 450 м
[Sc Ac trans]
+30.0 +26.0 79 +45 +45 опасность
перегрева
1002.8 1002.1
18 20.08 штиль 0 5000 м мгла 3/1 450 м
[Sc Ac trans]
+29.0 +26.0 84 +44 +44 опасность
перегрева
1003.1 1002.4
21 20.08 штиль 0 5000 м мгла 3/1 450 м
[Sc Ac trans]
+28.2 +26.0 88 +42 +42 опасность
перегрева
1002.7 1001.9
00 21.08 штиль 0 3000 м мгла 3/1 450 м
[Sc Ac trans]
+27.6 +27.0 97 +43 +44 опасность
перегрева
1002.5 1001.8
03 21.08 штиль 0 4000 м мгла 5/3 300 м
[St Ac trans]
+30.4 +26.0 77 +45 +54 опасность
перегрева
1003.8 1003.1 +27.4
06 21.08 Ю 2 5000 м мгла 5/4 450 м
[Cu Sc Ac trans]
+34.0 +25.0 59 +47 +60 опасность
перегрева
1003.3 1002.6

 

Местоположение метеостанции Джессор (Бангладеш): широта 23.18 долгота 89.17 высота над уровнем моря 7 м.

В архиве по умолчанию представлена погода в Джессоре за последнюю неделю. Архивные данные за месяц целиком и за предыдущие месяцы, начиная с января 2011 года, Вы можете получить, выбрав интересующий диапазон дат из раскрывающегося списка и нажав кнопку "Ввод!".


*Определитесь, кто Вы:
робот инопланетянин человек

Внимание! Время в таблицах - всемирное. Для получения местного времени необходимо прибавить поправку, которая равна 6.5 ч.

Смотрите также архив погоды в соседних городах и на ближайших метеорологических станциях:

Погода в Кумархали (Бангладеш) (38 км)
Погода в Саткхире (Бангладеш) (52 км)
Погода в Кхулне (Бангладеш) (58 км)
Погода в Чуаданге (Бангладеш) (63 км)
Погода в Бейсирхэте (Западная Бенгалия, Индия) (66 км)
Погода в Гопалгандж-Садаре (Бангладеш) (69 км)
Погода в Кришнанагаре (Западная Бенгалия, Индия) (71 км)
Погода в Монгле (Бангладеш) (73 км)
Погода в Фаридпуре (Бангладеш) (84 км)
Погода в Багати (Западная Бенгалия, Индия) (85 км)

Пояснения к столбцам:

Ветер - указаны скорость ветра в м/с - средняя за 10 мин, порывы в срок и между сроками (в фигурных скобках) и направление, откуда дует ветер: С - северный, СВ - северо-восточный, В - восточный, ЮВ - юго-восточный, Ю - южный, ЮЗ - юго-западный, З - западный, СЗ - северо-западный.
Видимость - горизонтальная дальность видимости в метрах или километрах. При видимости от 1 до 10 км при отсутствии осадков обычно наблюдается дымка, при ухудшении видимости до 1 км и менее - туман. В сухую погоду видимость может ухудшаться дымом, пылью или мглою.
Явления - указаны атмосферные явления, наблюдавшиеся в срок или в последний час перед сроком; фигурными скобками обозначены явления, наблюдавшиеся между сроками (за 1-3 часа до срока); квадратными скобками обозначены град или гололедные отложения с указанием их диаметра в мм.
Облачность - указаны через наклонную черту общая и нижняя облачность в баллах и высота нижней границы облаков в метрах; квадратными скобками обозначены формы облаков: Ci - перистые, Cs - перисто-слоистые, Cc - перисто-кучевые, Ac - высококучевые, As - высокослоистые, Sc - слоисто-кучевые, Ns - слоисто-дождевые, Cu - кучевые, Cb - кучево-дождевые. Подробнее классификацию облаков см. в Атласе облаков (PDF).
T - Температура воздуха - температура, измеренная на высоте 2 м над землей.
Td - Температура точки росы - температура, при понижении до которой содержащийся в воздухе водяной пар достигнет насыщения.
f - Относительная влажность воздуха - влажноcть воздуха, измеренная на высоте 2 м над землей.
Te - Эффективная температура - температура, которую ощущает одетый по сезону человек в тени. Характеристика душности погоды. При расчете учитывается влияние влажности воздуха и скорости ветра на теплоощущения человека.
Tes - Эффективная температура на солнце - температура, которую ощущает человек, с поправкой на солнечный нагрев. Характеристика знойности погоды. Зависит от высоты солнца над горизонтом, облачности и скорости ветра. Ночью, в пасмурную погоду, а также при ветре 12 м/с и более поправка равна нулю.
P - Атмосферное давление - приведенное к уровню моря атмосферное давление.
Po - Атмосферное давление - измеренное на уровне метеостанции атмосферное давление.
Tmin - Минимальная температура - минимум температуры воздуха на высоте 2 м над землей.
Tmax - Максимальная температура - максимум температуры воздуха на высоте 2 м над землей.
R - Количество осадков - Количество выпавших осадков за период времени, мм. При наведении курсора мыши на число - период времени, за который выпало указанное количество осадков.
R24 - Количество осадков - Количество выпавших осадков за 24 часа, мм.
S - Снежный покров - Высота снежного покрова, см. При наведении курсора мыши на число - состояние снежного покрова и степень покрытия местности в баллах.